TimeEDT,TemperatureF,Dew PointF,Humidity,Sea Level PressureIn,VisibilityMPH,Wind Direction,Wind SpeedMPH,Gust SpeedMPH,PrecipitationIn,Events,Conditions,WindDirDegrees,DateUTC
12:15 AM,44.8,33.8,65,30.33,10.0,North,5.8,-,N/A,,Clear,360,2013-04-23 04:15:00
12:35 AM,44.1,34.2,68,30.33,10.0,North,4.6,-,N/A,,Clear,10,2013-04-23 04:35:00
12:55 AM,43.7,33.8,68,30.33,10.0,North,3.5,-,N/A,,Clear,360,2013-04-23 04:55:00
1:15 AM,42.6,34.2,72,30.33,10.0,North,4.6,-,N/A,,Clear,10,2013-04-23 05:15:00
1:35 AM,42.6,33.4,70,30.32,10.0,North,4.6,-,N/A,,Clear,360,2013-04-23 05:35:00
1:55 AM,41.2,34.7,78,30.32,10.0,North,4.6,-,N/A,,Clear,360,2013-04-23 05:55:00
2:15 AM,40.5,34.7,80,30.32,10.0,North,5.8,-,N/A,,Clear,360,2013-04-23 06:15:00
2:35 AM,41.5,33.3,72,30.31,10.0,North,5.8,-,N/A,,Clear,360,2013-04-23 06:35:00
2:55 AM,39.9,34.2,80,30.31,10.0,North,4.6,-,N/A,,Clear,360,2013-04-23 06:55:00
3:15 AM,39.6,34.3,82,30.31,10.0,North,5.8,-,N/A,,Scattered Clouds,360,2013-04-23 07:15:00
3:35 AM,39.6,34.3,82,30.30,10.0,North,4.6,-,N/A,,Clear,360,2013-04-23 07:35:00
3:55 AM,39.7,33.8,79,30.30,10.0,North,4.6,-,N/A,,Clear,360,2013-04-23 07:55:00
4:15 AM,39.6,32.9,77,30.30,10.0,North,3.5,-,N/A,,Clear,10,2013-04-23 08:15:00
4:35 AM,38.1,32.4,80,30.29,10.0,North,3.5,-,N/A,,Clear,10,2013-04-23 08:35:00
4:55 AM,39.0,33.4,80,30.29,10.0,NNW,3.5,-,N/A,,Clear,330,2013-04-23 08:55:00
5:15 AM,37.0,33.8,88,30.29,10.0,Calm,Calm,-,N/A,,Clear,0,2013-04-23 09:15:00
5:35 AM,34.2,32.4,93,30.29,10.0,Calm,Calm,-,N/A,,Clear,0,2013-04-23 09:35:00
6:15 AM,34.7,34.2,98,30.29,10.0,Calm,Calm,-,N/A,,Clear,0,2013-04-23 10:15:00
6:35 AM,32.2,31.8,99,30.29,5.0,Calm,Calm,-,N/A,,Clear,0,2013-04-23 10:35:00
6:55 AM,32.0,31.8,99,30.29,7.0,Calm,Calm,-,N/A,,Clear,0,2013-04-23 10:55:00
7:15 AM,33.1,32.5,98,30.30,7.0,Calm,Calm,-,N/A,,Clear,0,2013-04-23 11:15:00
7:35 AM,37.0,36.7,99,30.29,10.0,Calm,Calm,-,N/A,,Clear,0,2013-04-23 11:35:00
7:55 AM,39.4,36.1,88,30.29,10.0,Calm,Calm,-,N/A,,Clear,0,2013-04-23 11:55:00
8:15 AM,41.4,36.1,82,30.30,10.0,WNW,3.5,-,N/A,,Scattered Clouds,300,2013-04-23 12:15:00
8:35 AM,41.4,35.6,80,30.31,10.0,Calm,Calm,-,N/A,,Mostly Cloudy,0,2013-04-23 12:35:00
8:55 AM,43.0,36.5,78,30.32,10.0,Calm,Calm,-,N/A,,Scattered Clouds,0,2013-04-23 12:55:00
9:15 AM,47.7,36.9,66,30.32,10.0,Calm,Calm,-,N/A,,Clear,0,2013-04-23 13:15:00
9:35 AM,50.9,37.2,59,30.32,10.0,North,4.6,-,N/A,,Clear,10,2013-04-23 13:35:00
9:55 AM,52.7,37.8,57,30.31,10.0,Calm,Calm,-,N/A,,Clear,0,2013-04-23 13:55:00
10:15 AM,53.2,38.7,58,30.32,10.0,NW,3.5,-,N/A,,Clear,320,2013-04-23 14:15:00
10:35 AM,55.9,39.7,55,30.29,10.0,NE,4.6,-,N/A,,Clear,50,2013-04-23 14:35:00
10:55 AM,57.0,41.0,55,30.29,10.0,Calm,Calm,-,N/A,,Clear,0,2013-04-23 14:55:00
11:15 AM,58.5,41.9,54,30.30,10.0,SSW,4.6,-,N/A,,Clear,210,2013-04-23 15:15:00
11:35 AM,59.0,42.3,54,30.30,10.0,Calm,Calm,-,N/A,,Clear,0,2013-04-23 15:35:00
11:55 AM,61.0,42.3,50,30.28,10.0,SSE,3.5,-,N/A,,Clear,150,2013-04-23 15:55:00
12:15 PM,61.9,42.6,49,30.28,10.0,South,4.6,-,N/A,,Clear,180,2013-04-23 16:15:00
12:35 PM,61.9,42.8,50,30.26,10.0,ENE,3.5,-,N/A,,Clear,70,2013-04-23 16:35:00
12:55 PM,63.3,42.3,46,30.25,10.0,East,3.5,-,N/A,,Clear,90,2013-04-23 16:55:00
1:15 PM,64.4,42.8,45,30.24,10.0,ESE,3.5,-,N/A,,Clear,110,2013-04-23 17:15:00
1:35 PM,66.4,42.8,42,30.23,10.0,ESE,3.5,-,N/A,,Clear,120,2013-04-23 17:35:00
1:55 PM,66.4,42.4,42,30.22,10.0,ENE,6.9,-,N/A,,Clear,60,2013-04-23 17:55:00
2:15 PM,68.0,41.9,39,30.21,10.0,East,6.9,-,N/A,,Clear,100,2013-04-23 18:15:00
2:35 PM,68.9,41.5,37,30.20,10.0,ENE,6.9,-,N/A,,Clear,70,2013-04-23 18:35:00
2:55 PM,69.4,42.6,38,30.19,10.0,ESE,5.8,-,N/A,,Clear,120,2013-04-23 18:55:00
3:15 PM,69.4,41.5,36,30.19,10.0,SE,4.6,-,N/A,,Clear,140,2013-04-23 19:15:00
3:35 PM,69.6,39.0,33,30.18,10.0,Calm,Calm,-,N/A,,Clear,0,2013-04-23 19:35:00
3:55 PM,71.4,40.3,32,30.17,10.0,ESE,4.6,-,N/A,,Clear,120,2013-04-23 19:55:00
4:15 PM,70.3,38.8,32,30.17,10.0,East,9.2,-,N/A,,Clear,100,2013-04-23 20:15:00
4:35 PM,71.4,39.9,32,30.15,10.0,Calm,Calm,-,N/A,,Clear,0,2013-04-23 20:35:00
4:55 PM,72.0,40.1,32,30.15,10.0,SSE,3.5,-,N/A,,Clear,160,2013-04-23 20:55:00
5:15 PM,71.6,40.8,33,30.14,-9999.0,SE,5.8,-,N/A,,Clear,140,2013-04-23 21:15:00
5:35 PM,71.6,41.0,33,30.14,-9999.0,SSE,8.1,-,N/A,,Clear,150,2013-04-23 21:35:00
5:55 PM,71.1,41.4,34,30.14,10.0,SSE,5.8,-,N/A,,Clear,150,2013-04-23 21:55:00
6:15 PM,70.7,41.9,35,30.14,-9999.0,SE,5.8,-,N/A,,Clear,140,2013-04-23 22:15:00
6:35 PM,69.1,42.3,38,30.15,-9999.0,SE,6.9,-,N/A,,Clear,130,2013-04-23 22:35:00
6:55 PM,68.0,43.3,41,30.15,-9999.0,SE,3.5,-,N/A,,Clear,140,2013-04-23 22:55:00
7:15 PM,67.3,44.8,44,30.15,10.0,SE,4.6,-,N/A,,Clear,130,2013-04-23 23:15:00
7:35 PM,66.9,45.3,46,30.15,10.0,SE,3.5,-,N/A,,Clear,140,2013-04-23 23:35:00
7:55 PM,65.5,45.5,48,30.14,-9999.0,SE,3.5,-,N/A,,Clear,130,2013-04-23 23:55:00
8:15 PM,64.4,45.7,51,30.15,10.0,Calm,Calm,-,N/A,,Clear,0,2013-04-24 00:15:00
8:35 PM,61.3,48.6,63,30.16,10.0,Calm,Calm,-,N/A,,Clear,0,2013-04-24 00:35:00
8:55 PM,61.0,47.5,61,30.16,10.0,SE,4.6,-,N/A,,Clear,130,2013-04-24 00:55:00
9:15 PM,61.0,47.1,60,30.16,10.0,SSE,3.5,-,N/A,,Clear,150,2013-04-24 01:15:00
9:35 PM,60.3,47.3,62,30.17,10.0,SE,4.6,-,N/A,,Clear,140,2013-04-24 01:35:00
9:55 PM,59.4,47.3,64,30.17,10.0,ESE,5.8,-,N/A,,Clear,120,2013-04-24 01:55:00
10:15 PM,58.6,47.3,66,30.17,10.0,ESE,4.6,-,N/A,,Clear,120,2013-04-24 02:15:00
10:35 PM,57.7,47.7,69,30.17,10.0,Calm,Calm,-,N/A,,Clear,0,2013-04-24 02:35:00
10:55 PM,58.1,47.7,68,30.17,10.0,SE,3.5,-,N/A,,Clear,140,2013-04-24 02:55:00
11:15 PM,53.6,48.6,83,30.17,10.0,Calm,Calm,-,N/A,,Clear,0,2013-04-24 03:15:00
11:35 PM,51.1,47.7,88,30.17,10.0,Calm,Calm,-,N/A,,Clear,0,2013-04-24 03:35:00
11:55 PM,50.2,47.7,91,30.18,10.0,Calm,Calm,-,N/A,,Clear,0,2013-04-24 03:55:00